Flag for Pakistan Weather past 2 weeks in Peshawar, Pakistan

Now
90 °F

Haze.


Feels Like: 95 °F
Forecast: 80 / 107 °F
Wind: 9 mph from Northeast

Location: Peshawar Airport

Current Time: Jul 3, 2015 at 10:23:36 PM

Latest Report: Jul 3, 2015 at 10:00 PM


Visibility: 2 mi

Pressure: 29.53 "Hg

Humidity: 52%

Dew point: 70 °F

Location of PeshawarLocation

Historic Weather in Peshawar — Graph

°F

Peshawar temperature yesterday

Maximum temperature yesterday: 93 °F (at 5:00 PM)
Minimum temperature yesterday: 77 °F (at 3:00 AM)
Average temperature yesterday: 85 °F

Past Weeks' High & Low Weather Summary

 TemperatureHumidityPressure
High108 °F (Jun 19, 3:00 PM)83% (Jul 2, 4:00 AM)29.77 "Hg (Jul 2, 4:00 AM)
Low72 °F (Jun 25, 4:00 AM)23% (Jun 19, 2:00 PM)29.45 "Hg (Jun 25, 12:00 PM)
Average90 °F45%29.59 "Hg
* Reported Jun 18 9:00 PM — Jul 3 9:00 PM, Peshawar, Weather by CustomWeather, © 2015

Note: Actual official high and low records may vary slightly from our data, if they occured in-between our weather recording intervals... More about our weather records

Advertising

Peshawar weather history for previous 24 hours

 ConditionsComfort  
Time TempWeatherWind HumidityBarometerVisibility
9:00 PM
Fri, Jul 3
93 °FHaze.9 mph49%29.53 "Hg2 mi
8:00 PM93 °FHaze.9 mph49%N/A2 mi
7:00 PM95 °FHaze.14 mph44%N/A2 mi
6:00 PM99 °FHaze.14 mph39%N/A3 mi
5:00 PM99 °FHaze.18 mph35%N/A3 mi
4:00 PM100 °FHaze.18 mph35%29.53 "Hg3 mi
3:00 PM99 °FHaze.12 mph37%29.53 "Hg3 mi
2:00 PM99 °FSunny.7 mph37%29.56 "Hg3 mi
1:00 PM97 °FSunny.9 mph42%29.56 "Hg3 mi
12:00 PM95 °FSunny.9 mph44%29.59 "Hg3 mi
11:00 AM93 °FHaze.7 mph47%29.62 "Hg3 mi
10:00 AM90 °FSunny.7 mph52%29.62 "Hg3 mi
9:00 AM88 °FSunny.5 mph55%29.62 "Hg2 mi
8:00 AM84 °FSunny.5 mph62%29.62 "Hg2 mi
7:00 AM82 °FHaze.5 mph66%29.62 "Hg2 mi
6:00 AM81 °FHaze.7 mph66%29.59 "Hg2 mi
5:00 AM81 °FHaze.5 mph74%29.59 "Hg2 mi
4:00 AM81 °FHaze.5 mph70%29.59 "Hg2 mi
3:00 AM81 °FPassing clouds.7 mph66%29.59 "Hg2 mi
2:00 AM82 °FPassing clouds.9 mph66%29.59 "Hg2 mi
12:00 AM82 °FHaze.12 mph62%29.62 "Hg2 mi
11:00 PM
Thu, Jul 2
82 °FHaze.12 mph62%29.62 "Hg2 mi
10:00 PM84 °FHaze.12 mph58%29.62 "Hg2 mi
Weather by CustomWeather, © 2015

See weather overviewHow to use our weather pages